Year,Month,Day,Hour,Minute,Value (Times are PST for temperature in C)
2015,06,20,00,00,11.20
2015,06,20,00,01,11.20
2015,06,20,00,02,11.20
2015,06,20,00,03,11.10
2015,06,20,00,04,11.10
2015,06,20,00,05,11.10
2015,06,20,00,06,11.10
2015,06,20,00,07,11.10
2015,06,20,00,08,11.10
2015,06,20,00,09,11.00
2015,06,20,00,10,11.00
2015,06,20,00,11,11.00
2015,06,20,00,12,10.90
2015,06,20,00,13,10.90
2015,06,20,00,14,10.90
2015,06,20,00,15,10.80
2015,06,20,00,16,10.80
2015,06,20,00,17,10.80
2015,06,20,00,18,10.80
2015,06,20,00,19,10.70
2015,06,20,00,20,10.70
2015,06,20,00,21,10.70
2015,06,20,00,22,10.70
2015,06,20,00,23,10.70
2015,06,20,00,24,10.70
2015,06,20,00,25,10.70
2015,06,20,00,26,10.60
2015,06,20,00,27,10.60
2015,06,20,00,28,10.60
2015,06,20,00,29,10.60
2015,06,20,00,30,10.60
2015,06,20,00,31,10.60
2015,06,20,00,32,10.60
2015,06,20,00,33,10.50
2015,06,20,00,34,10.50
2015,06,20,00,35,10.50
2015,06,20,00,36,10.40
2015,06,20,00,37,10.40
2015,06,20,00,38,10.40
2015,06,20,00,39,10.40
2015,06,20,00,40,10.40
2015,06,20,00,41,10.30
2015,06,20,00,42,10.30
2015,06,20,00,43,10.30
2015,06,20,00,44,10.30
2015,06,20,00,45,10.30
2015,06,20,00,46,10.20
2015,06,20,00,47,10.20
2015,06,20,00,48,10.20
2015,06,20,00,49,10.20
2015,06,20,00,50,10.20
2015,06,20,00,51,10.20
2015,06,20,00,52,10.10
2015,06,20,00,53,10.10
2015,06,20,00,54,10.10
2015,06,20,00,55,10.10
2015,06,20,00,56,10.10
2015,06,20,00,57,10.10
2015,06,20,00,58,10.10
2015,06,20,00,59,10.10
2015,06,20,01,00,10.10
2015,06,20,01,01,10.10
2015,06,20,01,02,10.10
2015,06,20,01,03,10.10
2015,06,20,01,04,10.10
2015,06,20,01,05,10.10
2015,06,20,01,06,10.10
2015,06,20,01,07,10.00
2015,06,20,01,08,10.00
2015,06,20,01,09,10.00
2015,06,20,01,10,10.00
2015,06,20,01,11,10.10
2015,06,20,01,12,10.10
2015,06,20,01,13,10.10
2015,06,20,01,14,10.10
2015,06,20,01,15,10.10
2015,06,20,01,16,10.20
2015,06,20,01,17,10.20
2015,06,20,01,18,10.20
2015,06,20,01,19,10.20
2015,06,20,01,20,10.20
2015,06,20,01,21,10.20
2015,06,20,01,22,10.20
2015,06,20,01,23,10.20
2015,06,20,01,24,10.20
2015,06,20,01,25,10.20
2015,06,20,01,26,10.20
2015,06,20,01,27,10.20
2015,06,20,01,28,10.20
2015,06,20,01,29,10.20
2015,06,20,01,30,10.20
2015,06,20,01,31,10.20
2015,06,20,01,32,10.20
2015,06,20,01,33,10.20
2015,06,20,01,34,10.20
2015,06,20,01,35,10.20
2015,06,20,01,36,10.20
2015,06,20,01,37,10.20
2015,06,20,01,38,10.20
2015,06,20,01,39,10.20
2015,06,20,01,40,10.10
2015,06,20,01,41,10.10
2015,06,20,01,42,10.10
2015,06,20,01,43,10.10
2015,06,20,01,44,10.10
2015,06,20,01,45,10.10
2015,06,20,01,46,10.00
2015,06,20,01,47,10.00
2015,06,20,01,48,10.00
2015,06,20,01,49,10.00
2015,06,20,01,50,10.00
2015,06,20,01,51,9.90
2015,06,20,01,52,9.90
2015,06,20,01,53,9.90
2015,06,20,01,54,9.90
2015,06,20,01,55,9.90
2015,06,20,01,56,9.90
2015,06,20,01,57,9.90
2015,06,20,01,58,9.80
2015,06,20,01,59,9.80
2015,06,20,02,00,9.80
2015,06,20,02,01,9.70
2015,06,20,02,02,9.70
2015,06,20,02,03,9.70
2015,06,20,02,04,9.70
2015,06,20,02,05,9.60
2015,06,20,02,06,9.60
2015,06,20,02,07,9.60
2015,06,20,02,08,9.50
2015,06,20,02,09,9.50
2015,06,20,02,10,9.50
2015,06,20,02,11,9.50
2015,06,20,02,12,9.40
2015,06,20,02,13,9.40
2015,06,20,02,14,9.40
2015,06,20,02,15,9.40
2015,06,20,02,16,9.40
2015,06,20,02,17,9.40
2015,06,20,02,18,9.40
2015,06,20,02,19,9.50
2015,06,20,02,20,9.60
2015,06,20,02,21,9.60
2015,06,20,02,22,9.60
2015,06,20,02,23,9.70
2015,06,20,02,24,9.70
2015,06,20,02,25,9.70
2015,06,20,02,26,9.70
2015,06,20,02,27,9.70
2015,06,20,02,28,9.70
2015,06,20,02,29,9.70
2015,06,20,02,30,9.70
2015,06,20,02,31,9.70
2015,06,20,02,32,9.70
2015,06,20,02,33,9.60
2015,06,20,02,34,9.60
2015,06,20,02,35,9.60
2015,06,20,02,36,9.60
2015,06,20,02,37,9.60
2015,06,20,02,38,9.60
2015,06,20,02,39,9.50
2015,06,20,02,40,9.50
2015,06,20,02,41,9.40
2015,06,20,02,42,9.40
2015,06,20,02,43,9.40
2015,06,20,02,44,9.40
2015,06,20,02,45,9.40
2015,06,20,02,46,9.30
2015,06,20,02,47,9.30
2015,06,20,02,48,9.30
2015,06,20,02,49,9.30
2015,06,20,02,50,9.30
2015,06,20,02,51,9.30
2015,06,20,02,52,9.30
2015,06,20,02,53,9.30
2015,06,20,02,54,9.30
2015,06,20,02,55,9.30
2015,06,20,02,56,9.30
2015,06,20,02,57,9.30
2015,06,20,02,58,9.30
2015,06,20,02,59,9.30
2015,06,20,03,00,9.30
2015,06,20,03,01,9.30
2015,06,20,03,02,9.30
2015,06,20,03,03,9.30
2015,06,20,03,04,9.30
2015,06,20,03,05,9.30
2015,06,20,03,06,9.20
2015,06,20,03,07,9.20
2015,06,20,03,08,9.20
2015,06,20,03,09,9.20
2015,06,20,03,10,9.20
2015,06,20,03,11,9.20
2015,06,20,03,12,9.10
2015,06,20,03,13,9.10
2015,06,20,03,14,9.10
2015,06,20,03,15,9.10
2015,06,20,03,16,9.00
2015,06,20,03,17,9.00
2015,06,20,03,18,9.00
2015,06,20,03,19,8.90
2015,06,20,03,20,8.90
2015,06,20,03,21,8.90
2015,06,20,03,22,8.80
2015,06,20,03,23,8.80
2015,06,20,03,24,8.80
2015,06,20,03,25,8.70
2015,06,20,03,26,8.70
2015,06,20,03,27,8.70
2015,06,20,03,28,8.70
2015,06,20,03,29,8.60
2015,06,20,03,30,8.60
2015,06,20,03,31,8.60
2015,06,20,03,32,8.60
2015,06,20,03,33,8.60
2015,06,20,03,34,8.50
2015,06,20,03,35,8.40
2015,06,20,03,36,8.40
2015,06,20,03,37,8.40
2015,06,20,03,38,8.30
2015,06,20,03,39,8.30
2015,06,20,03,40,8.30
2015,06,20,03,41,8.30
2015,06,20,03,42,8.30
2015,06,20,03,43,8.30
2015,06,20,03,44,8.30
2015,06,20,03,45,8.20
2015,06,20,03,46,8.20
2015,06,20,03,47,8.20
2015,06,20,03,48,8.20
2015,06,20,03,49,8.20
2015,06,20,03,50,8.20
2015,06,20,03,51,8.20
2015,06,20,03,52,8.20
2015,06,20,03,53,8.20
2015,06,20,03,54,8.20
2015,06,20,03,55,8.20
2015,06,20,03,56,8.10
2015,06,20,03,57,8.10
2015,06,20,03,58,8.10
2015,06,20,03,59,8.10
2015,06,20,04,00,8.10
2015,06,20,04,01,8.10
2015,06,20,04,02,8.10
2015,06,20,04,03,8.10
2015,06,20,04,04,8.10
2015,06,20,04,05,8.00
2015,06,20,04,06,8.00
2015,06,20,04,07,8.00
2015,06,20,04,08,8.00
2015,06,20,04,09,8.00
2015,06,20,04,10,8.00
2015,06,20,04,11,8.00
2015,06,20,04,12,7.90
2015,06,20,04,13,7.90
2015,06,20,04,14,7.90
2015,06,20,04,15,7.90
2015,06,20,04,16,7.90
2015,06,20,04,17,7.90
2015,06,20,04,18,7.90
2015,06,20,04,19,7.90
2015,06,20,04,20,7.90
2015,06,20,04,21,7.80
2015,06,20,04,22,7.80
2015,06,20,04,23,7.80
2015,06,20,04,24,7.80
2015,06,20,04,25,7.80
2015,06,20,04,26,7.80
2015,06,20,04,27,7.80
2015,06,20,04,28,7.80
2015,06,20,04,29,7.80
2015,06,20,04,30,7.80
2015,06,20,04,31,7.80
2015,06,20,04,32,7.80
2015,06,20,04,33,7.80
2015,06,20,04,34,7.80
2015,06,20,04,35,7.80
2015,06,20,04,36,7.80
2015,06,20,04,37,7.80
2015,06,20,04,38,7.80
2015,06,20,04,39,7.80
2015,06,20,04,40,7.80
2015,06,20,04,41,7.80
2015,06,20,04,42,7.80
2015,06,20,04,43,7.80
2015,06,20,04,44,7.80
2015,06,20,04,45,7.80
2015,06,20,04,46,7.80
2015,06,20,04,47,7.80
2015,06,20,04,48,7.80
2015,06,20,04,49,7.80
2015,06,20,04,50,7.80
2015,06,20,04,51,7.80
2015,06,20,04,52,7.80
2015,06,20,04,53,7.80
2015,06,20,04,54,7.80
2015,06,20,04,55,7.80
2015,06,20,04,56,7.80
2015,06,20,04,57,7.80
2015,06,20,04,58,7.80
2015,06,20,04,59,7.80
2015,06,20,05,00,7.80
2015,06,20,05,01,7.70
2015,06,20,05,02,7.70
2015,06,20,05,03,7.70
2015,06,20,05,04,7.70
2015,06,20,05,05,7.70
2015,06,20,05,06,7.70
2015,06,20,05,07,7.70
2015,06,20,05,08,7.70
2015,06,20,05,09,7.70
2015,06,20,05,10,7.70
2015,06,20,05,11,7.70
2015,06,20,05,12,7.70
2015,06,20,05,13,7.70
2015,06,20,05,14,7.70
2015,06,20,05,15,7.70
2015,06,20,05,16,7.70
2015,06,20,05,17,7.70
2015,06,20,05,18,7.70
2015,06,20,05,19,7.70
2015,06,20,05,20,7.70
2015,06,20,05,21,7.70
2015,06,20,05,22,7.70
2015,06,20,05,23,7.70
2015,06,20,05,24,7.70
2015,06,20,05,25,7.70
2015,06,20,05,26,7.70
2015,06,20,05,27,7.70
2015,06,20,05,28,7.70
2015,06,20,05,29,7.70
2015,06,20,05,30,7.70
2015,06,20,05,31,7.70
2015,06,20,05,32,7.70
2015,06,20,05,33,7.70
2015,06,20,05,34,7.70
2015,06,20,05,35,7.70
2015,06,20,05,36,7.70
2015,06,20,05,37,7.70
2015,06,20,05,38,7.70
2015,06,20,05,39,7.70
2015,06,20,05,40,7.70
2015,06,20,05,41,7.70
2015,06,20,05,42,7.70
2015,06,20,05,43,7.70
2015,06,20,05,44,7.70
2015,06,20,05,45,7.70
2015,06,20,05,46,7.70
2015,06,20,05,47,7.70
2015,06,20,05,48,7.70
2015,06,20,05,49,7.70
2015,06,20,05,50,7.80
2015,06,20,05,51,7.80
2015,06,20,05,52,7.80
2015,06,20,05,53,7.80
2015,06,20,05,54,7.80
2015,06,20,05,55,7.90
2015,06,20,05,56,7.90
2015,06,20,05,57,7.90
2015,06,20,05,58,7.90
2015,06,20,05,59,7.90
2015,06,20,06,00,7.90
2015,06,20,06,01,7.90
2015,06,20,06,02,8.00
2015,06,20,06,03,8.00
2015,06,20,06,04,8.00
2015,06,20,06,05,8.00
2015,06,20,06,06,8.10
2015,06,20,06,07,8.10
2015,06,20,06,08,8.10
2015,06,20,06,09,8.10
2015,06,20,06,10,8.10
2015,06,20,06,11,8.20
2015,06,20,06,12,8.20
2015,06,20,06,13,8.20
2015,06,20,06,14,8.20
2015,06,20,06,15,8.30
2015,06,20,06,16,8.30
2015,06,20,06,17,8.40
2015,06,20,06,18,8.40
2015,06,20,06,19,8.40
2015,06,20,06,20,8.50
2015,06,20,06,21,8.50
2015,06,20,06,22,8.60
2015,06,20,06,23,8.60
2015,06,20,06,24,8.60
2015,06,20,06,25,8.60
2015,06,20,06,26,8.60
2015,06,20,06,27,8.60
2015,06,20,06,28,8.60
2015,06,20,06,29,8.70
2015,06,20,06,30,8.70
2015,06,20,06,31,8.70
2015,06,20,06,32,8.70
2015,06,20,06,33,8.70
2015,06,20,06,34,8.70
2015,06,20,06,35,8.70
2015,06,20,06,36,8.70
2015,06,20,06,37,8.70
2015,06,20,06,38,8.70
2015,06,20,06,39,8.70
2015,06,20,06,40,8.80
2015,06,20,06,41,8.80
2015,06,20,06,42,8.80
2015,06,20,06,43,8.80
2015,06,20,06,44,8.90
2015,06,20,06,45,8.90
2015,06,20,06,46,8.90
2015,06,20,06,47,9.00
2015,06,20,06,48,9.00
2015,06,20,06,49,9.10
2015,06,20,06,50,9.10
2015,06,20,06,51,9.20
2015,06,20,06,52,9.20
2015,06,20,06,53,9.20
2015,06,20,06,54,9.20
2015,06,20,06,55,9.30
2015,06,20,06,56,9.30
2015,06,20,06,57,9.30
2015,06,20,06,58,9.30
2015,06,20,06,59,9.40
2015,06,20,07,00,9.40
2015,06,20,07,01,9.40
2015,06,20,07,02,9.50
2015,06,20,07,03,9.50
2015,06,20,07,04,9.50
2015,06,20,07,05,9.60
2015,06,20,07,06,9.60
2015,06,20,07,07,9.60
2015,06,20,07,08,9.60
2015,06,20,07,09,9.60
2015,06,20,07,10,9.60
2015,06,20,07,11,9.70
2015,06,20,07,12,9.70
2015,06,20,07,13,9.70
2015,06,20,07,14,9.80
2015,06,20,07,15,9.80
2015,06,20,07,16,9.80
2015,06,20,07,17,9.90
2015,06,20,07,18,9.90
2015,06,20,07,19,9.90
2015,06,20,07,20,10.00
2015,06,20,07,21,10.10
2015,06,20,07,22,10.20
2015,06,20,07,23,10.20
2015,06,20,07,24,10.30
2015,06,20,07,25,10.30
2015,06,20,07,26,10.40
2015,06,20,07,27,10.50
2015,06,20,07,28,10.50
2015,06,20,07,29,10.60
2015,06,20,07,30,10.60
2015,06,20,07,31,10.70
2015,06,20,07,32,10.70
2015,06,20,07,33,10.80
2015,06,20,07,34,10.80
2015,06,20,07,35,10.80
2015,06,20,07,36,10.90
2015,06,20,07,37,10.90
2015,06,20,07,38,11.00
2015,06,20,07,39,11.10
2015,06,20,07,40,11.10
2015,06,20,07,41,11.10
2015,06,20,07,42,11.20
2015,06,20,07,43,11.20
2015,06,20,07,44,11.30
2015,06,20,07,45,11.30
2015,06,20,07,46,11.30
2015,06,20,07,47,11.30
2015,06,20,07,48,11.40
2015,06,20,07,49,11.40
2015,06,20,07,50,11.40
2015,06,20,07,51,11.40
2015,06,20,07,52,11.50
2015,06,20,07,53,11.50
2015,06,20,07,54,11.60
2015,06,20,07,55,11.60
2015,06,20,07,56,11.60
2015,06,20,07,57,11.70
2015,06,20,07,58,11.70
2015,06,20,07,59,11.70
2015,06,20,08,00,11.80
2015,06,20,08,01,11.80
2015,06,20,08,02,11.80
2015,06,20,08,03,11.90
2015,06,20,08,04,12.00
2015,06,20,08,05,12.10
2015,06,20,08,06,12.10
2015,06,20,08,07,12.20
2015,06,20,08,08,12.30
2015,06,20,08,09,12.40
2015,06,20,08,10,12.50
2015,06,20,08,11,12.60
2015,06,20,08,12,12.60
2015,06,20,08,13,12.70
2015,06,20,08,14,12.70
2015,06,20,08,15,12.80
2015,06,20,08,16,12.80
2015,06,20,08,17,12.90
2015,06,20,08,18,12.90
2015,06,20,08,19,12.90
2015,06,20,08,20,13.00
2015,06,20,08,21,13.00
2015,06,20,08,22,13.10
2015,06,20,08,23,13.10
2015,06,20,08,24,13.20
2015,06,20,08,25,13.20
2015,06,20,08,26,13.20
2015,06,20,08,27,13.30
2015,06,20,08,28,13.30
2015,06,20,08,29,13.30
2015,06,20,08,30,13.40
2015,06,20,08,31,13.40
2015,06,20,08,32,13.40
2015,06,20,08,33,13.50
2015,06,20,08,34,13.50
2015,06,20,08,35,13.60
2015,06,20,08,36,13.60
2015,06,20,08,37,13.70
2015,06,20,08,38,13.80
2015,06,20,08,39,13.80
2015,06,20,08,40,13.90
2015,06,20,08,41,13.90
2015,06,20,08,42,14.00
2015,06,20,08,43,14.00
2015,06,20,08,44,14.10
2015,06,20,08,45,14.20
2015,06,20,08,46,14.20
2015,06,20,08,47,14.30
2015,06,20,08,48,14.30
2015,06,20,08,49,14.40
2015,06,20,08,50,14.40
2015,06,20,08,51,14.50
2015,06,20,08,52,14.50
2015,06,20,08,53,14.60
2015,06,20,08,54,14.60
2015,06,20,08,55,14.70
2015,06,20,08,56,14.70
2015,06,20,08,57,14.70
2015,06,20,08,58,14.70
2015,06,20,08,59,14.80
2015,06,20,09,00,14.80
2015,06,20,09,01,14.80
2015,06,20,09,02,14.90
2015,06,20,09,03,15.00
2015,06,20,09,04,15.00
2015,06,20,09,05,15.00
2015,06,20,09,06,15.00
2015,06,20,09,07,15.00
2015,06,20,09,08,15.00
2015,06,20,09,09,15.00
2015,06,20,09,10,15.00
2015,06,20,09,11,15.00
2015,06,20,09,12,15.20
2015,06,20,09,13,15.30
2015,06,20,09,14,15.30
2015,06,20,09,15,15.30
2015,06,20,09,16,15.30
2015,06,20,09,17,15.40
2015,06,20,09,18,15.40
2015,06,20,09,19,15.40
2015,06,20,09,20,15.40
2015,06,20,09,21,15.40
2015,06,20,09,22,15.40
2015,06,20,09,23,15.50
2015,06,20,09,24,15.50
2015,06,20,09,25,15.60
2015,06,20,09,26,15.60
2015,06,20,09,27,15.70
2015,06,20,09,28,15.70
2015,06,20,09,29,15.80
2015,06,20,09,30,15.80
2015,06,20,09,31,15.90
2015,06,20,09,32,15.90
2015,06,20,09,33,16.00
2015,06,20,09,34,16.10
2015,06,20,09,35,16.20
2015,06,20,09,36,16.20
2015,06,20,09,37,16.30
2015,06,20,09,38,16.30
2015,06,20,09,39,16.30
2015,06,20,09,40,16.30
2015,06,20,09,41,16.40
2015,06,20,09,42,16.40
2015,06,20,09,43,16.50
2015,06,20,09,44,16.60
2015,06,20,09,45,16.70
2015,06,20,09,46,16.80
2015,06,20,09,47,16.90
2015,06,20,09,48,17.00
2015,06,20,09,49,17.10
2015,06,20,09,50,17.20
2015,06,20,09,51,17.20
2015,06,20,09,52,17.30
2015,06,20,09,53,17.30
2015,06,20,09,54,17.40
2015,06,20,09,55,17.40
2015,06,20,09,56,17.50
2015,06,20,09,57,17.50
2015,06,20,09,58,17.60
2015,06,20,09,59,17.60
2015,06,20,10,00,17.60
2015,06,20,10,01,17.50
2015,06,20,10,02,17.50
2015,06,20,10,03,17.40
2015,06,20,10,04,17.30
2015,06,20,10,05,17.30
2015,06,20,10,06,17.20
2015,06,20,10,07,17.20
2015,06,20,10,08,17.10
2015,06,20,10,09,17.10
2015,06,20,10,10,17.10
2015,06,20,10,11,17.20
2015,06,20,10,12,17.20
2015,06,20,10,13,17.30
2015,06,20,10,14,17.30
2015,06,20,10,15,17.40
2015,06,20,10,16,17.40
2015,06,20,10,17,17.50
2015,06,20,10,18,17.60
2015,06,20,10,19,17.70
2015,06,20,10,20,17.70
2015,06,20,10,21,17.80
2015,06,20,10,22,17.90
2015,06,20,10,23,18.00
2015,06,20,10,24,18.10
2015,06,20,10,25,18.20
2015,06,20,10,26,18.30
2015,06,20,10,27,18.40
2015,06,20,10,28,18.50
2015,06,20,10,29,18.70
2015,06,20,10,30,18.80
2015,06,20,10,31,18.90
2015,06,20,10,32,19.00
2015,06,20,10,33,19.10
2015,06,20,10,34,19.10
2015,06,20,10,35,19.10
2015,06,20,10,36,19.00
2015,06,20,10,37,19.00
2015,06,20,10,38,18.90
2015,06,20,10,39,18.90
2015,06,20,10,40,18.90
2015,06,20,10,41,18.80
2015,06,20,10,42,18.80
2015,06,20,10,43,18.80
2015,06,20,10,44,18.80
2015,06,20,10,45,18.70
2015,06,20,10,46,18.70
2015,06,20,10,47,18.60
2015,06,20,10,48,18.60
2015,06,20,10,49,18.70
2015,06,20,10,50,18.70
2015,06,20,10,51,18.80
2015,06,20,10,52,18.90
2015,06,20,10,53,19.00
2015,06,20,10,54,19.20
2015,06,20,10,55,19.20
2015,06,20,10,56,19.40
2015,06,20,10,57,19.50
2015,06,20,10,58,19.60
2015,06,20,10,59,19.70
2015,06,20,11,00,19.80
2015,06,20,11,01,19.80
2015,06,20,11,02,19.70
2015,06,20,11,03,19.60
2015,06,20,11,04,19.50
2015,06,20,11,05,19.40
2015,06,20,11,06,19.30
2015,06,20,11,07,19.30
2015,06,20,11,08,19.20
2015,06,20,11,09,19.20
2015,06,20,11,10,19.20
2015,06,20,11,11,19.10
2015,06,20,11,12,19.20
2015,06,20,11,13,19.20
2015,06,20,11,14,19.30
2015,06,20,11,15,19.50
2015,06,20,11,16,19.60
2015,06,20,11,17,19.70
2015,06,20,11,18,19.80
2015,06,20,11,19,20.00
2015,06,20,11,20,20.00
2015,06,20,11,21,20.00
2015,06,20,11,22,19.90
2015,06,20,11,23,19.90
2015,06,20,11,24,19.90
2015,06,20,11,25,19.90
2015,06,20,11,26,19.90
2015,06,20,11,27,20.00
2015,06,20,11,28,20.10
2015,06,20,11,29,20.10
2015,06,20,11,30,20.30
2015,06,20,11,31,20.30
2015,06,20,11,32,20.50
2015,06,20,11,33,20.60
2015,06,20,11,34,20.60
2015,06,20,11,35,20.70
2015,06,20,11,36,20.60
2015,06,20,11,37,20.50
2015,06,20,11,38,20.40
2015,06,20,11,39,20.40
2015,06,20,11,40,20.40
2015,06,20,11,41,20.40
2015,06,20,11,42,20.50
2015,06,20,11,43,20.50
2015,06,20,11,44,20.70
2015,06,20,11,45,20.80
2015,06,20,11,46,20.90
2015,06,20,11,47,21.00
2015,06,20,11,48,21.10
2015,06,20,11,49,21.20
2015,06,20,11,50,21.20
2015,06,20,11,51,21.30
2015,06,20,11,52,21.40
2015,06,20,11,53,21.50
2015,06,20,11,54,21.70
2015,06,20,11,55,21.80
2015,06,20,11,56,21.70
2015,06,20,11,57,21.60
2015,06,20,11,58,21.50
2015,06,20,11,59,21.40
2015,06,20,12,00,21.20
2015,06,20,12,01,21.10
2015,06,20,12,02,20.90
2015,06,20,12,03,20.90
2015,06,20,12,04,20.90
2015,06,20,12,05,20.90
2015,06,20,12,06,21.00
2015,06,20,12,07,21.10
2015,06,20,12,08,21.20
2015,06,20,12,09,21.30
2015,06,20,12,10,21.30
2015,06,20,12,11,21.40
2015,06,20,12,12,21.40
2015,06,20,12,13,21.30
2015,06,20,12,14,21.30
2015,06,20,12,15,21.40
2015,06,20,12,16,21.50
2015,06,20,12,17,21.50
2015,06,20,12,18,21.50
2015,06,20,12,19,21.40
2015,06,20,12,20,21.40
2015,06,20,12,21,21.30
2015,06,20,12,22,21.30
2015,06,20,12,23,21.30
2015,06,20,12,24,21.30
2015,06,20,12,25,21.30
2015,06,20,12,26,21.40
2015,06,20,12,27,21.50
2015,06,20,12,28,21.50
2015,06,20,12,29,21.60
2015,06,20,12,30,21.60
2015,06,20,12,31,21.60
2015,06,20,12,32,21.60
2015,06,20,12,33,21.60
2015,06,20,12,34,21.50
2015,06,20,12,35,21.40
2015,06,20,12,36,21.30
2015,06,20,12,37,21.30
2015,06,20,12,38,21.30
2015,06,20,12,39,21.30
2015,06,20,12,40,21.30
2015,06,20,12,41,21.30
2015,06,20,12,42,21.30
2015,06,20,12,43,21.30
2015,06,20,12,44,21.30
2015,06,20,12,45,21.40
2015,06,20,12,46,21.50
2015,06,20,12,47,21.60
2015,06,20,12,48,21.70
2015,06,20,12,49,21.80
2015,06,20,12,50,21.80
2015,06,20,12,51,21.80
2015,06,20,12,52,21.70
2015,06,20,12,53,21.60
2015,06,20,12,54,21.60
2015,06,20,12,55,21.50
2015,06,20,12,56,21.40
2015,06,20,12,57,21.30
2015,06,20,12,58,21.30
2015,06,20,12,59,21.30
2015,06,20,13,00,21.40
2015,06,20,13,01,21.50
2015,06,20,13,02,21.70
2015,06,20,13,03,21.70
2015,06,20,13,04,21.80
2015,06,20,13,05,21.90
2015,06,20,13,06,21.90
2015,06,20,13,07,21.90
2015,06,20,13,08,21.90
2015,06,20,13,09,21.80
2015,06,20,13,10,21.80
2015,06,20,13,11,21.80
2015,06,20,13,12,21.70
2015,06,20,13,13,21.70
2015,06,20,13,14,21.70
2015,06,20,13,15,21.70
2015,06,20,13,16,21.70
2015,06,20,13,17,21.70
2015,06,20,13,18,21.80
2015,06,20,13,19,21.80
2015,06,20,13,20,21.80
2015,06,20,13,21,21.80
2015,06,20,13,22,21.70
2015,06,20,13,23,21.70
2015,06,20,13,24,21.60
2015,06,20,13,25,21.60
2015,06,20,13,26,21.70
2015,06,20,13,27,21.90
2015,06,20,13,28,22.00
2015,06,20,13,29,22.20
2015,06,20,13,30,22.30
2015,06,20,13,31,22.50
2015,06,20,13,32,22.60
2015,06,20,13,33,22.70
2015,06,20,13,34,22.80
2015,06,20,13,35,22.80
2015,06,20,13,36,22.80
2015,06,20,13,37,22.80
2015,06,20,13,38,22.80
2015,06,20,13,39,22.70
2015,06,20,13,40,22.70
2015,06,20,13,41,22.70
2015,06,20,13,42,22.70
2015,06,20,13,43,22.70
2015,06,20,13,44,22.80
2015,06,20,13,45,22.80
2015,06,20,13,46,22.80
2015,06,20,13,47,22.80
2015,06,20,13,48,22.80
2015,06,20,13,49,22.90
2015,06,20,13,50,22.90
2015,06,20,13,51,23.00
2015,06,20,13,52,23.10
2015,06,20,13,53,23.10
2015,06,20,13,54,23.10
2015,06,20,13,55,23.10
2015,06,20,13,56,23.10
2015,06,20,13,57,23.10
2015,06,20,13,58,23.10
2015,06,20,13,59,23.10
2015,06,20,14,00,23.10
2015,06,20,14,01,23.10
2015,06,20,14,02,23.10
2015,06,20,14,03,23.10
2015,06,20,14,04,23.20
2015,06,20,14,05,23.30
2015,06,20,14,06,23.30
2015,06,20,14,07,23.30
2015,06,20,14,08,23.20
2015,06,20,14,09,23.20
2015,06,20,14,10,23.20
2015,06,20,14,11,23.10
2015,06,20,14,12,23.20
2015,06,20,14,13,23.30
2015,06,20,14,14,23.30
2015,06,20,14,15,23.40
2015,06,20,14,16,23.60
2015,06,20,14,17,23.70
2015,06,20,14,18,23.80
2015,06,20,14,19,23.90
2015,06,20,14,20,23.90
2015,06,20,14,21,23.80
2015,06,20,14,22,23.70
2015,06,20,14,23,23.60
2015,06,20,14,24,23.40
2015,06,20,14,25,23.20
2015,06,20,14,26,23.10
2015,06,20,14,27,22.90
2015,06,20,14,28,22.80
2015,06,20,14,29,22.80
2015,06,20,14,30,22.70
2015,06,20,14,31,22.80
2015,06,20,14,32,22.80
2015,06,20,14,33,22.80
2015,06,20,14,34,22.80
2015,06,20,14,35,22.70
2015,06,20,14,36,22.60
2015,06,20,14,37,22.40
2015,06,20,14,38,22.30
2015,06,20,14,39,22.10
2015,06,20,14,40,21.90
2015,06,20,14,41,21.70
2015,06,20,14,42,21.60
2015,06,20,14,43,21.40
2015,06,20,14,44,21.40
2015,06,20,14,45,21.30
2015,06,20,14,46,21.30
2015,06,20,14,47,21.30
2015,06,20,14,48,21.30
2015,06,20,14,49,21.30
2015,06,20,14,50,21.30
2015,06,20,14,51,21.40
2015,06,20,14,52,21.40
2015,06,20,14,53,21.40
2015,06,20,14,54,21.50
2015,06,20,14,55,21.60
2015,06,20,14,56,21.70
2015,06,20,14,57,21.80
2015,06,20,14,58,21.80
2015,06,20,14,59,21.70
2015,06,20,15,00,21.60
2015,06,20,15,01,21.60
2015,06,20,15,02,21.50
2015,06,20,15,03,21.40
2015,06,20,15,04,21.40
2015,06,20,15,05,21.40
2015,06,20,15,06,21.30
2015,06,20,15,07,21.20
2015,06,20,15,08,21.20
2015,06,20,15,09,21.30
2015,06,20,15,10,21.30
2015,06,20,15,11,21.30
2015,06,20,15,12,21.40
2015,06,20,15,13,21.40
2015,06,20,15,14,21.50
2015,06,20,15,15,21.60
2015,06,20,15,16,21.80
2015,06,20,15,17,21.80
2015,06,20,15,18,21.80
2015,06,20,15,19,21.80
2015,06,20,15,20,21.90
2015,06,20,15,21,21.90
2015,06,20,15,22,21.90
2015,06,20,15,23,21.90
2015,06,20,15,24,21.90
2015,06,20,15,25,21.80
2015,06,20,15,26,21.70
2015,06,20,15,27,21.60
2015,06,20,15,28,21.60
2015,06,20,15,29,21.50
2015,06,20,15,30,21.50
2015,06,20,15,31,21.50
2015,06,20,15,32,21.50
2015,06,20,15,33,21.40
2015,06,20,15,34,21.40
2015,06,20,15,35,21.30
2015,06,20,15,36,21.20
2015,06,20,15,37,21.10
2015,06,20,15,38,21.10
2015,06,20,15,39,21.10
2015,06,20,15,40,21.10
2015,06,20,15,41,21.00
2015,06,20,15,42,21.00
2015,06,20,15,43,21.00
2015,06,20,15,44,20.90
2015,06,20,15,45,20.80
2015,06,20,15,46,20.70
2015,06,20,15,47,20.60
2015,06,20,15,48,20.50
2015,06,20,15,49,20.40
2015,06,20,15,50,20.40
2015,06,20,15,51,20.40
2015,06,20,15,52,20.40
2015,06,20,15,53,20.30
2015,06,20,15,54,20.20
2015,06,20,15,55,20.20
2015,06,20,15,56,20.20
2015,06,20,15,57,20.10
2015,06,20,15,58,20.20
2015,06,20,15,59,20.20
2015,06,20,16,00,20.20
2015,06,20,16,01,20.20
2015,06,20,16,02,20.20
2015,06,20,16,03,20.20
2015,06,20,16,04,20.30
2015,06,20,16,05,20.40
2015,06,20,16,06,20.50
2015,06,20,16,07,20.60
2015,06,20,16,08,20.70
2015,06,20,16,09,20.80
2015,06,20,16,10,20.90
2015,06,20,16,11,21.00
2015,06,20,16,12,21.20
2015,06,20,16,13,21.20
2015,06,20,16,14,21.30
2015,06,20,16,15,21.30
2015,06,20,16,16,21.40
2015,06,20,16,17,21.50
2015,06,20,16,18,21.50
2015,06,20,16,19,21.70
2015,06,20,16,20,21.80
2015,06,20,16,21,21.90
2015,06,20,16,22,21.90
2015,06,20,16,23,21.90
2015,06,20,16,24,21.80
2015,06,20,16,25,21.60
2015,06,20,16,26,21.60
2015,06,20,16,27,21.60
2015,06,20,16,28,21.50
2015,06,20,16,29,21.50
2015,06,20,16,30,21.40
2015,06,20,16,31,21.40
2015,06,20,16,32,21.40
2015,06,20,16,33,21.40
2015,06,20,16,34,21.40
2015,06,20,16,35,21.50
2015,06,20,16,36,21.40
2015,06,20,16,37,21.40
2015,06,20,16,38,21.30
2015,06,20,16,39,21.30
2015,06,20,16,40,21.30
2015,06,20,16,41,21.20
2015,06,20,16,42,21.20
2015,06,20,16,43,21.20
2015,06,20,16,44,21.20
2015,06,20,16,45,21.10
2015,06,20,16,46,21.10
2015,06,20,16,47,21.10
2015,06,20,16,48,21.10
2015,06,20,16,49,21.20
2015,06,20,16,50,21.20
2015,06,20,16,51,21.20
2015,06,20,16,52,21.20
2015,06,20,16,53,21.20
2015,06,20,16,54,21.20
2015,06,20,16,55,21.20
2015,06,20,16,56,21.20
2015,06,20,16,57,21.20
2015,06,20,16,58,21.20
2015,06,20,16,59,21.10
2015,06,20,17,00,21.10
2015,06,20,17,01,21.10
2015,06,20,17,02,21.00
2015,06,20,17,03,21.00
2015,06,20,17,04,20.90
2015,06,20,17,05,20.90
2015,06,20,17,06,20.80
2015,06,20,17,07,20.80
2015,06,20,17,08,20.70
2015,06,20,17,09,20.70
2015,06,20,17,10,20.70
2015,06,20,17,11,20.80
2015,06,20,17,12,20.90
2015,06,20,17,13,20.90
2015,06,20,17,14,21.00
2015,06,20,17,15,21.00
2015,06,20,17,16,20.90
2015,06,20,17,17,20.90
2015,06,20,17,18,20.80
2015,06,20,17,19,20.80
2015,06,20,17,20,20.80
2015,06,20,17,21,20.80
2015,06,20,17,22,20.80
2015,06,20,17,23,20.80
2015,06,20,17,24,20.80
2015,06,20,17,25,20.80
2015,06,20,17,26,20.90
2015,06,20,17,27,20.90
2015,06,20,17,28,20.90
2015,06,20,17,29,20.90
2015,06,20,17,30,20.90
2015,06,20,17,31,20.80
2015,06,20,17,32,20.80
2015,06,20,17,33,20.90